Time,TemperatureF,DewpointF,PressureIn,WindDirection,WindDirectionDegrees,WindSpeedMPH,WindSpeedGustMPH,Humidity,HourlyPrecipIn,Conditions,Clouds,dailyrainin,SoftwareType,DateUTC
2013-02-04 00:01:00,36.8,30.0,30.09,NW,313,0.0,0.0,76,0.00,,---,0.00,VWS V14.01,2013-02-04 06:01:00,
2013-02-04 00:06:00,36.9,30.4,30.09,NW,313,0.0,0.0,77,0.00,,---,0.00,VWS V14.01,2013-02-04 06:06:00,
2013-02-04 00:11:00,36.9,30.4,30.09,NW,313,0.0,0.0,77,0.00,,---,0.00,VWS V14.01,2013-02-04 06:11:00,
2013-02-04 00:16:00,36.8,30.3,30.09,NW,313,0.0,0.0,77,0.00,,---,0.00,VWS V14.01,2013-02-04 06:16:00,
2013-02-04 00:21:00,36.7,30.2,30.09,NW,313,0.0,0.0,77,0.00,,---,0.00,VWS V14.01,2013-02-04 06:21:00,
2013-02-04 00:26:00,36.7,30.2,30.09,NW,313,0.0,0.0,77,0.00,,---,0.00,VWS V14.01,2013-02-04 06:26:00,
2013-02-04 00:31:00,36.6,30.1,30.09,NW,313,0.0,0.0,77,0.00,,---,0.00,VWS V14.01,2013-02-04 06:31:00,
2013-02-04 00:36:00,36.6,30.4,30.09,NW,313,0.0,0.0,78,0.00,,---,0.00,VWS V14.01,2013-02-04 06:36:00,
2013-02-04 00:41:00,36.5,30.3,30.09,NW,313,0.0,0.0,78,0.00,,---,0.00,VWS V14.01,2013-02-04 06:41:00,
2013-02-04 00:46:00,36.5,30.3,30.08,NW,313,0.0,0.0,78,0.00,,---,0.00,VWS V14.01,2013-02-04 06:46:00,
2013-02-04 00:51:00,36.4,30.2,30.09,NW,313,0.0,0.0,78,0.00,,---,0.00,VWS V14.01,2013-02-04 06:51:00,
2013-02-04 00:56:00,36.3,30.1,30.08,NW,313,0.0,0.0,78,0.00,,---,0.00,VWS V14.01,2013-02-04 06:56:00,
2013-02-04 01:01:00,36.3,30.1,30.08,NW,313,0.0,1.0,78,0.00,,---,0.00,VWS V14.01,2013-02-04 07:01:00,
2013-02-04 01:06:00,36.4,30.2,30.07,NW,313,0.0,0.0,78,0.00,,---,0.00,VWS V14.01,2013-02-04 07:06:00,
2013-02-04 01:11:00,36.6,30.7,30.07,NW,313,0.0,1.0,79,0.00,,---,0.00,VWS V14.01,2013-02-04 07:11:00,
2013-02-04 01:16:00,36.7,30.8,30.07,NW,313,0.0,1.0,79,0.00,,---,0.00,VWS V14.01,2013-02-04 07:16:00,
2013-02-04 01:21:00,36.7,30.2,30.07,SSE,155,1.0,3.0,77,0.00,,---,0.00,VWS V14.01,2013-02-04 07:21:00,
2013-02-04 01:26:00,36.8,29.6,30.07,SSE,155,0.0,3.0,75,0.00,,---,0.00,VWS V14.01,2013-02-04 07:26:00,
2013-02-04 01:31:00,37.0,29.5,30.07,SSE,155,0.0,3.0,74,0.00,,---,0.00,VWS V14.01,2013-02-04 07:31:00,
2013-02-04 01:36:00,37.3,29.5,30.07,SSE,155,0.0,0.0,73,0.00,,---,0.00,VWS V14.01,2013-02-04 07:36:00,
2013-02-04 01:41:00,37.3,29.8,30.07,SSE,155,0.0,0.0,74,0.00,,---,0.00,VWS V14.01,2013-02-04 07:41:00,
2013-02-04 01:46:00,37.4,29.2,30.07,SE,142,2.0,4.0,72,0.00,,---,0.00,VWS V14.01,2013-02-04 07:46:00,
2013-02-04 01:51:00,37.6,29.7,30.07,SSE,147,0.0,4.0,73,0.00,,---,0.00,VWS V14.01,2013-02-04 07:51:00,
2013-02-04 01:56:00,37.8,29.3,30.07,SSE,147,0.0,4.0,71,0.00,,---,0.00,VWS V14.01,2013-02-04 07:56:00,
2013-02-04 02:01:00,38.0,29.1,30.07,SSE,147,0.0,4.0,70,0.00,,---,0.00,VWS V14.01,2013-02-04 08:01:00,
2013-02-04 02:06:00,38.2,29.3,30.07,SSE,147,0.0,1.0,70,0.00,,---,0.00,VWS V14.01,2013-02-04 08:06:00,
2013-02-04 02:11:00,38.4,29.1,30.06,SSE,147,0.0,2.0,69,0.00,,---,0.00,VWS V14.01,2013-02-04 08:11:00,
2013-02-04 02:16:00,38.6,29.3,30.07,SSE,147,0.0,2.0,69,0.00,,---,0.00,VWS V14.01,2013-02-04 08:16:00,
2013-02-04 02:21:00,38.7,29.4,30.07,SSE,147,0.0,2.0,69,0.00,,---,0.00,VWS V14.01,2013-02-04 08:21:00,
2013-02-04 02:26:00,38.8,29.2,30.07,SSE,147,0.0,2.0,68,0.00,,---,0.00,VWS V14.01,2013-02-04 08:26:00,
2013-02-04 02:31:00,38.8,29.9,30.07,SSE,147,0.0,2.0,70,0.00,,---,0.00,VWS V14.01,2013-02-04 08:31:00,
2013-02-04 02:36:00,38.7,29.1,30.07,SSE,147,0.0,0.0,68,0.00,,---,0.00,VWS V14.01,2013-02-04 08:36:00,
2013-02-04 02:41:00,38.7,29.8,30.07,SSE,147,0.0,0.0,70,0.00,,---,0.00,VWS V14.01,2013-02-04 08:41:00,
2013-02-04 02:46:00,38.6,29.7,30.07,SSE,147,0.0,1.0,70,0.00,,---,0.00,VWS V14.01,2013-02-04 08:46:00,
2013-02-04 02:51:00,38.4,29.8,30.07,SSE,147,0.0,1.0,71,0.00,,---,0.00,VWS V14.01,2013-02-04 08:51:00,
2013-02-04 02:56:00,38.3,29.7,30.07,SSE,147,0.0,3.0,71,0.00,,---,0.00,VWS V14.01,2013-02-04 08:56:00,
2013-02-04 03:01:00,38.1,29.2,30.07,SSE,147,0.0,3.0,70,0.00,,---,0.00,VWS V14.01,2013-02-04 09:01:00,
2013-02-04 03:06:00,38.0,29.1,30.07,SSE,147,0.0,1.0,70,0.00,,---,0.00,VWS V14.01,2013-02-04 09:06:00,
2013-02-04 03:11:00,37.9,29.4,30.06,SSE,147,1.0,3.0,71,0.00,,---,0.00,VWS V14.01,2013-02-04 09:11:00,
2013-02-04 03:16:00,37.9,29.4,30.06,SSE,147,0.0,3.0,71,0.00,,---,0.00,VWS V14.01,2013-02-04 09:16:00,
2013-02-04 03:21:00,38.0,29.1,30.05,SSE,147,1.0,5.0,70,0.00,,---,0.00,VWS V14.01,2013-02-04 09:21:00,
2013-02-04 03:26:00,38.4,29.1,30.05,SE,129,3.0,5.0,69,0.00,,---,0.00,VWS V14.01,2013-02-04 09:26:00,
2013-02-04 03:31:00,38.7,29.1,30.05,SSE,148,2.0,5.0,68,0.00,,---,0.00,VWS V14.01,2013-02-04 09:31:00,
2013-02-04 03:36:00,38.9,29.2,30.05,SE,142,2.0,2.0,68,0.00,,---,0.00,VWS V14.01,2013-02-04 09:36:00,
2013-02-04 03:41:00,39.0,29.0,30.05,SSE,163,1.0,4.0,67,0.00,,---,0.00,VWS V14.01,2013-02-04 09:41:00,
2013-02-04 03:46:00,39.1,29.1,30.05,SE,143,3.0,4.0,67,0.00,,---,0.00,VWS V14.01,2013-02-04 09:46:00,
2013-02-04 03:51:00,39.1,29.1,30.04,SE,143,1.0,4.0,67,0.00,,---,0.00,VWS V14.01,2013-02-04 09:51:00,
2013-02-04 03:56:00,39.2,29.2,30.04,South,169,1.0,4.0,67,0.00,,---,0.00,VWS V14.01,2013-02-04 09:56:00,
2013-02-04 04:01:00,39.3,29.3,30.04,South,170,0.0,5.0,67,0.00,,---,0.00,VWS V14.01,2013-02-04 10:01:00,
2013-02-04 04:06:00,39.4,29.4,30.03,SE,126,2.0,6.0,67,0.00,,---,0.00,VWS V14.01,2013-02-04 10:06:00,
2013-02-04 04:11:00,39.4,29.4,30.03,SE,146,6.0,6.0,67,0.00,,---,0.00,VWS V14.01,2013-02-04 10:11:00,
2013-02-04 04:16:00,39.6,29.2,30.03,SSE,158,3.0,7.0,66,0.00,,---,0.00,VWS V14.01,2013-02-04 10:16:00,
2013-02-04 04:21:00,39.6,29.6,30.04,SE,146,3.0,7.0,67,0.00,,---,0.00,VWS V14.01,2013-02-04 10:21:00,
2013-02-04 04:26:00,39.6,29.2,30.04,South,169,2.0,7.0,66,0.00,,---,0.00,VWS V14.01,2013-02-04 10:26:00,
2013-02-04 04:31:00,39.6,29.2,30.04,SSE,165,4.0,7.0,66,0.00,,---,0.00,VWS V14.01,2013-02-04 10:31:00,
2013-02-04 04:36:00,39.6,29.2,30.04,SE,128,3.0,5.0,66,0.00,,---,0.00,VWS V14.01,2013-02-04 10:36:00,
2013-02-04 04:41:00,39.6,29.2,30.04,SE,140,0.0,7.0,66,0.00,,---,0.00,VWS V14.01,2013-02-04 10:41:00,
2013-02-04 04:46:00,39.5,29.1,30.04,SSE,166,3.0,7.0,66,0.00,,---,0.00,VWS V14.01,2013-02-04 10:46:00,
2013-02-04 04:51:00,39.3,29.3,30.03,South,176,4.0,7.0,67,0.00,,---,0.00,VWS V14.01,2013-02-04 10:51:00,
2013-02-04 04:56:00,39.3,29.3,30.03,SSE,159,5.0,7.0,67,0.00,,---,0.00,VWS V14.01,2013-02-04 10:56:00,
2013-02-04 05:01:00,39.2,29.5,30.03,SSE,159,3.0,8.0,68,0.00,,---,0.00,VWS V14.01,2013-02-04 11:01:00,
2013-02-04 05:06:00,39.2,29.5,30.02,SSE,161,4.0,7.0,68,0.00,,---,0.00,VWS V14.01,2013-02-04 11:06:00,
2013-02-04 05:11:00,39.2,29.5,30.02,SSE,165,3.0,7.0,68,0.00,,---,0.00,VWS V14.01,2013-02-04 11:11:00,
2013-02-04 05:16:00,39.3,29.6,30.02,SE,144,1.0,7.0,68,0.00,,---,0.00,VWS V14.01,2013-02-04 11:16:00,
2013-02-04 05:21:00,39.4,29.7,30.02,SE,142,5.0,9.0,68,0.00,,---,0.00,VWS V14.01,2013-02-04 11:21:00,
2013-02-04 05:26:00,39.6,29.9,30.02,South,169,5.0,9.0,68,0.00,,---,0.00,VWS V14.01,2013-02-04 11:26:00,
2013-02-04 05:31:00,39.7,29.7,30.01,SE,144,0.0,9.0,67,0.00,,---,0.00,VWS V14.01,2013-02-04 11:31:00,
2013-02-04 05:36:00,39.9,29.9,30.01,SSE,165,3.0,7.0,67,0.00,,---,0.00,VWS V14.01,2013-02-04 11:36:00,
2013-02-04 05:41:00,40.0,29.9,30.01,SE,126,6.0,7.0,67,0.00,,---,0.00,VWS V14.01,2013-02-04 11:41:00,
2013-02-04 05:46:00,40.2,30.1,30.01,SE,136,5.0,7.0,67,0.00,,---,0.00,VWS V14.01,2013-02-04 11:46:00,
2013-02-04 05:51:00,40.2,29.8,30.01,SSE,155,4.0,10.0,66,0.00,,---,0.00,VWS V14.01,2013-02-04 11:51:00,
2013-02-04 05:56:00,40.3,30.2,30.00,East,90,3.0,10.0,67,0.00,,---,0.00,VWS V14.01,2013-02-04 11:56:00,
2013-02-04 06:01:00,40.3,30.2,30.00,SE,142,8.0,10.0,67,0.00,,---,0.00,VWS V14.01,2013-02-04 12:01:00,
2013-02-04 06:06:00,40.3,30.2,30.00,SSE,155,3.0,5.0,67,0.00,,---,0.00,VWS V14.01,2013-02-04 12:06:00,
2013-02-04 06:11:00,40.3,30.2,30.00,SE,132,6.0,7.0,67,0.00,,---,0.00,VWS V14.01,2013-02-04 12:11:00,
2013-02-04 06:16:00,40.3,29.9,30.00,South,175,2.0,7.0,66,0.00,,---,0.00,VWS V14.01,2013-02-04 12:16:00,
2013-02-04 06:21:00,40.4,30.0,30.00,SE,140,4.0,7.0,66,0.00,,---,0.00,VWS V14.01,2013-02-04 12:21:00,
2013-02-04 06:26:00,40.4,30.0,30.00,SSE,147,2.0,7.0,66,0.00,,---,0.00,VWS V14.01,2013-02-04 12:26:00,
2013-02-04 06:31:00,40.4,30.0,30.00,South,175,5.0,10.0,66,0.00,,---,0.00,VWS V14.01,2013-02-04 12:31:00,
2013-02-04 06:36:00,40.4,30.0,30.00,SE,145,2.0,6.0,66,0.00,,---,0.00,VWS V14.01,2013-02-04 12:36:00,
2013-02-04 06:41:00,40.4,30.3,30.00,South,170,3.0,8.0,67,0.00,,---,0.00,VWS V14.01,2013-02-04 12:41:00,
2013-02-04 06:46:00,40.3,30.2,30.00,South,187,4.0,8.0,67,0.00,,---,0.00,VWS V14.01,2013-02-04 12:46:00,
2013-02-04 06:51:00,40.3,30.2,30.00,SSE,161,5.0,8.0,67,0.00,,---,0.00,VWS V14.01,2013-02-04 12:51:00,
2013-02-04 06:56:00,40.2,30.1,30.00,SE,133,2.0,8.0,67,0.00,,---,0.00,VWS V14.01,2013-02-04 12:56:00,
2013-02-04 07:01:00,40.2,30.1,30.00,ESE,121,2.0,8.0,67,0.00,,---,0.00,VWS V14.01,2013-02-04 13:01:00,
2013-02-04 07:06:00,40.3,30.2,30.00,SW,226,3.0,3.0,67,0.00,,---,0.00,VWS V14.01,2013-02-04 13:06:00,
2013-02-04 07:11:00,40.4,30.3,29.99,SSE,161,6.0,8.0,67,0.00,,---,0.00,VWS V14.01,2013-02-04 13:11:00,
2013-02-04 07:16:00,40.5,30.4,29.99,SSE,157,5.0,8.0,67,0.00,,---,0.00,VWS V14.01,2013-02-04 13:16:00,
2013-02-04 07:21:00,40.8,30.7,30.00,SSE,161,3.0,9.0,67,0.00,,---,0.00,VWS V14.01,2013-02-04 13:21:00,
2013-02-04 07:26:00,41.0,30.5,30.00,South,172,4.0,9.0,66,0.00,,---,0.00,VWS V14.01,2013-02-04 13:26:00,
2013-02-04 07:31:00,41.4,30.5,30.00,SE,140,4.0,9.0,65,0.00,,---,0.00,VWS V14.01,2013-02-04 13:31:00,
2013-02-04 07:36:00,41.7,30.8,30.00,South,171,3.0,7.0,65,0.00,,---,0.00,VWS V14.01,2013-02-04 13:36:00,
2013-02-04 07:41:00,42.0,30.7,30.00,SSE,168,2.0,7.0,64,0.00,,---,0.00,VWS V14.01,2013-02-04 13:41:00,
2013-02-04 07:46:00,42.2,30.9,30.00,SSE,159,2.0,7.0,64,0.00,,---,0.00,VWS V14.01,2013-02-04 13:46:00,
2013-02-04 07:51:00,42.5,30.8,30.00,SSE,157,0.0,7.0,63,0.00,,---,0.00,VWS V14.01,2013-02-04 13:51:00,
2013-02-04 07:56:00,42.7,31.0,30.00,South,184,4.0,7.0,63,0.00,,---,0.00,VWS V14.01,2013-02-04 13:56:00,
2013-02-04 08:01:00,42.9,30.8,30.00,SE,128,4.0,7.0,62,0.00,,---,0.00,VWS V14.01,2013-02-04 14:01:00,
2013-02-04 08:06:00,43.1,31.0,30.01,SSW,199,4.0,6.0,62,0.00,,---,0.00,VWS V14.01,2013-02-04 14:06:00,
2013-02-04 08:11:00,43.3,31.2,30.00,West,259,3.0,6.0,62,0.00,,---,0.00,VWS V14.01,2013-02-04 14:11:00,
2013-02-04 08:16:00,43.5,31.0,30.01,South,177,3.0,7.0,61,0.00,,---,0.00,VWS V14.01,2013-02-04 14:16:00,
2013-02-04 08:21:00,43.7,30.7,30.01,SSE,160,4.0,8.0,60,0.00,,---,0.00,VWS V14.01,2013-02-04 14:21:00,
2013-02-04 08:26:00,43.9,30.9,30.01,South,173,3.0,9.0,60,0.00,,---,0.00,VWS V14.01,2013-02-04 14:26:00,
2013-02-04 08:31:00,44.1,30.7,30.01,South,175,5.0,9.0,59,0.00,,---,0.00,VWS V14.01,2013-02-04 14:31:00,
2013-02-04 08:36:00,44.3,31.3,30.01,South,182,5.0,5.0,60,0.00,,---,0.00,VWS V14.01,2013-02-04 14:36:00,
2013-02-04 08:41:00,44.5,31.1,30.01,SSW,192,3.0,7.0,59,0.00,,---,0.00,VWS V14.01,2013-02-04 14:41:00,
2013-02-04 08:46:00,44.6,31.2,30.01,South,188,4.0,8.0,59,0.00,,---,0.00,VWS V14.01,2013-02-04 14:46:00,
2013-02-04 08:51:00,44.8,30.9,30.00,ESE,122,8.0,9.0,58,0.00,,---,0.00,VWS V14.01,2013-02-04 14:51:00,
2013-02-04 08:56:00,44.9,31.0,30.00,SSE,148,4.0,9.0,58,0.00,,---,0.00,VWS V14.01,2013-02-04 14:56:00,
2013-02-04 09:01:00,45.0,31.1,30.00,SSW,192,3.0,10.0,58,0.00,,---,0.00,VWS V14.01,2013-02-04 15:01:00,
2013-02-04 09:06:00,45.0,31.1,30.00,SSW,192,2.0,4.0,58,0.00,,---,0.00,VWS V14.01,2013-02-04 15:06:00,
2013-02-04 09:11:00,45.1,31.2,30.00,South,173,4.0,9.0,58,0.00,,---,0.00,VWS V14.01,2013-02-04 15:11:00,
2013-02-04 09:16:00,45.1,31.2,30.00,SSW,198,5.0,9.0,58,0.00,,---,0.00,VWS V14.01,2013-02-04 15:16:00,
2013-02-04 09:20:00,45.2,31.3,30.00,SSE,166,3.0,9.0,58,0.00,,---,0.00,VWS V14.01,2013-02-04 15:20:00,
2013-02-04 09:25:00,45.4,31.5,30.00,SSE,160,6.0,9.0,58,0.00,,---,0.00,VWS V14.01,2013-02-04 15:25:00,
2013-02-04 09:30:00,45.6,31.3,30.00,SSE,159,6.0,9.0,57,0.00,,---,0.00,VWS V14.01,2013-02-04 15:30:00,
2013-02-04 09:35:00,45.9,32.0,30.00,South,172,1.0,4.0,58,0.00,,---,0.00,VWS V14.01,2013-02-04 15:35:00,
2013-02-04 09:40:00,46.3,31.9,30.00,SSE,165,2.0,7.0,57,0.00,,---,0.00,VWS V14.01,2013-02-04 15:40:00,
2013-02-04 09:45:00,46.7,32.3,30.00,South,172,2.0,7.0,57,0.00,,---,0.00,VWS V14.01,2013-02-04 15:45:00,
2013-02-04 09:50:00,47.2,32.3,30.00,SE,130,6.0,10.0,56,0.00,,---,0.00,VWS V14.01,2013-02-04 15:50:00,
2013-02-04 09:55:00,47.4,32.5,30.01,SSE,154,7.0,10.0,56,0.00,,---,0.00,VWS V14.01,2013-02-04 15:55:00,
2013-02-04 10:00:00,47.8,32.4,30.01,South,170,5.0,10.0,55,0.00,,---,0.00,VWS V14.01,2013-02-04 16:00:00,
2013-02-04 10:05:00,48.2,32.3,30.01,South,177,4.0,7.0,54,0.00,,---,0.00,VWS V14.01,2013-02-04 16:05:00,
2013-02-04 10:10:00,48.5,32.2,30.01,SSW,196,6.0,10.0,53,0.00,,---,0.00,VWS V14.01,2013-02-04 16:10:00,
2013-02-04 10:15:00,48.5,32.2,30.01,SSE,147,4.0,10.0,53,0.00,,---,0.00,VWS V14.01,2013-02-04 16:15:00,
2013-02-04 10:20:00,48.6,31.8,30.01,South,171,8.0,10.0,52,0.00,,---,0.00,VWS V14.01,2013-02-04 16:20:00,
2013-02-04 10:25:00,48.6,31.8,30.01,SSW,194,5.0,10.0,52,0.00,,---,0.00,VWS V14.01,2013-02-04 16:25:00,
2013-02-04 10:30:00,48.7,32.3,30.01,SSW,207,2.0,10.0,53,0.00,,---,0.00,VWS V14.01,2013-02-04 16:30:00,
2013-02-04 10:35:00,49.0,32.2,30.01,South,180,2.0,5.0,52,0.00,,---,0.00,VWS V14.01,2013-02-04 16:35:00,
2013-02-04 10:40:00,49.4,32.5,30.00,SE,131,0.0,5.0,52,0.00,,---,0.00,VWS V14.01,2013-02-04 16:40:00,
2013-02-04 10:45:00,50.0,33.1,30.00,South,188,4.0,6.0,52,0.00,,---,0.00,VWS V14.01,2013-02-04 16:45:00,
2013-02-04 10:50:00,50.6,32.7,30.00,SE,137,8.0,8.0,50,0.00,,---,0.00,VWS V14.01,2013-02-04 16:50:00,
2013-02-04 10:55:00,51.3,32.3,30.00,SSE,154,4.0,8.0,48,0.00,,---,0.00,VWS V14.01,2013-02-04 16:55:00,
2013-02-04 11:00:00,51.8,33.3,30.00,SE,126,0.0,8.0,49,0.00,,---,0.00,VWS V14.01,2013-02-04 17:00:00,
2013-02-04 11:05:00,52.8,32.6,30.00,SSW,207,6.0,10.0,46,0.00,,---,0.00,VWS V14.01,2013-02-04 17:05:00,
2013-02-04 11:10:00,53.4,32.6,30.00,South,183,5.0,10.0,45,0.00,,---,0.00,VWS V14.01,2013-02-04 17:10:00,
2013-02-04 11:15:00,53.6,31.7,30.00,South,190,6.0,13.0,43,0.00,,---,0.00,VWS V14.01,2013-02-04 17:15:00,
2013-02-04 11:20:00,53.7,32.3,30.00,SW,219,11.0,13.0,44,0.00,,---,0.00,VWS V14.01,2013-02-04 17:20:00,
2013-02-04 11:25:00,54.1,32.7,29.99,South,187,6.0,13.0,44,0.00,,---,0.00,VWS V14.01,2013-02-04 17:25:00,
2013-02-04 11:30:00,54.4,32.4,29.99,SSW,203,6.0,13.0,43,0.00,,---,0.00,VWS V14.01,2013-02-04 17:30:00,
2013-02-04 11:35:00,54.4,32.4,29.99,South,179,9.0,12.0,43,0.00,,---,0.00,VWS V14.01,2013-02-04 17:35:00,
2013-02-04 11:40:00,54.8,33.3,29.98,SW,225,10.0,12.0,44,0.00,,---,0.00,VWS V14.01,2013-02-04 17:40:00,
2013-02-04 11:45:00,55.0,32.3,29.98,SSE,153,6.0,16.0,42,0.00,,---,0.00,VWS V14.01,2013-02-04 17:45:00,
2013-02-04 11:50:00,55.1,33.0,29.98,SSW,194,9.0,16.0,43,0.00,,---,0.00,VWS V14.01,2013-02-04 17:50:00,
2013-02-04 11:55:00,55.3,33.2,29.98,South,172,9.0,16.0,43,0.00,,---,0.00,VWS V14.01,2013-02-04 17:55:00,
2013-02-04 12:00:00,55.7,33.0,29.97,South,180,2.0,16.0,42,0.00,,---,0.00,VWS V14.01,2013-02-04 18:00:00,
2013-02-04 12:05:00,56.4,33.6,29.97,WSW,246,4.0,9.0,42,0.00,,---,0.00,VWS V14.01,2013-02-04 18:05:00,
2013-02-04 12:10:00,57.2,33.7,29.96,South,176,7.0,13.0,41,0.00,,---,0.00,VWS V14.01,2013-02-04 18:10:00,
2013-02-04 12:15:00,57.4,33.3,29.97,SSW,213,7.0,13.0,40,0.00,,---,0.00,VWS V14.01,2013-02-04 18:15:00,
2013-02-04 12:20:00,57.3,33.8,29.96,WSW,244,8.0,13.0,41,0.00,,---,0.00,VWS V14.01,2013-02-04 18:20:00,
2013-02-04 12:25:00,57.3,33.8,29.95,SSW,203,6.0,13.0,41,0.00,,---,0.00,VWS V14.01,2013-02-04 18:25:00,
2013-02-04 12:30:00,57.9,34.4,29.95,South,190,4.0,13.0,41,0.00,,---,0.00,VWS V14.01,2013-02-04 18:30:00,
2013-02-04 12:35:00,58.6,34.4,29.95,South,186,5.0,8.0,40,0.00,,---,0.00,VWS V14.01,2013-02-04 18:35:00,
2013-02-04 12:40:00,59.1,33.5,29.95,West,259,12.0,16.0,38,0.00,,---,0.00,VWS V14.01,2013-02-04 18:40:00,
2013-02-04 12:45:00,59.3,34.4,29.94,SSW,193,3.0,16.0,39,0.00,,---,0.00,VWS V14.01,2013-02-04 18:45:00,
2013-02-04 12:50:00,59.3,33.7,29.94,South,173,7.0,16.0,38,0.00,,---,0.00,VWS V14.01,2013-02-04 18:50:00,
2013-02-04 12:55:00,58.8,33.9,29.94,SSW,203,5.0,16.0,39,0.00,,---,0.00,VWS V14.01,2013-02-04 18:55:00,
2013-02-04 13:00:00,58.9,34.6,29.94,SSW,193,5.0,16.0,40,0.00,,---,0.00,VWS V14.01,2013-02-04 19:00:00,
2013-02-04 13:05:00,59.1,34.2,29.94,SW,218,6.0,10.0,39,0.00,,---,0.00,VWS V14.01,2013-02-04 19:05:00,
2013-02-04 13:10:00,59.2,33.6,29.93,South,185,13.0,15.0,38,0.00,,---,0.00,VWS V14.01,2013-02-04 19:10:00,
2013-02-04 13:15:00,58.8,33.9,29.93,SSW,194,13.0,15.0,39,0.00,,---,0.00,VWS V14.01,2013-02-04 19:15:00,
2013-02-04 13:20:00,58.5,34.3,29.93,SW,215,7.0,15.0,40,0.00,,---,0.00,VWS V14.01,2013-02-04 19:20:00,
2013-02-04 13:25:00,58.3,34.1,29.92,SSW,198,10.0,15.0,40,0.00,,---,0.00,VWS V14.01,2013-02-04 19:25:00,
2013-02-04 13:30:00,58.2,34.0,29.92,SSE,150,9.0,15.0,40,0.00,,---,0.00,VWS V14.01,2013-02-04 19:30:00,
2013-02-04 13:35:00,58.1,33.9,29.92,SW,215,7.0,12.0,40,0.00,,---,0.00,VWS V14.01,2013-02-04 19:35:00,
2013-02-04 13:40:00,58.1,33.9,29.92,SSW,210,5.0,14.0,40,0.00,,---,0.00,VWS V14.01,2013-02-04 19:40:00,
2013-02-04 13:45:00,58.1,33.9,29.92,SW,234,4.0,16.0,40,0.00,,---,0.00,VWS V14.01,2013-02-04 19:45:00,
2013-02-04 13:50:00,58.0,33.8,29.92,WSW,248,7.0,16.0,40,0.00,,---,0.00,VWS V14.01,2013-02-04 19:50:00,
2013-02-04 13:55:00,57.8,33.7,29.92,South,171,12.0,16.0,40,0.00,,---,0.00,VWS V14.01,2013-02-04 19:55:00,
2013-02-04 14:00:00,57.7,33.6,29.92,South,184,7.0,16.0,40,0.00,,---,0.00,VWS V14.01,2013-02-04 20:00:00,
2013-02-04 14:05:00,57.5,34.0,29.92,SSW,202,2.0,7.0,41,0.00,,---,0.00,VWS V14.01,2013-02-04 20:05:00,
2013-02-04 14:10:00,57.5,34.6,29.92,SW,236,6.0,7.0,42,0.00,,---,0.00,VWS V14.01,2013-02-04 20:10:00,
2013-02-04 14:15:00,57.2,34.3,29.92,SSW,194,7.0,10.0,42,0.00,,---,0.00,VWS V14.01,2013-02-04 20:15:00,
2013-02-04 14:20:00,56.8,34.0,29.92,SW,223,3.0,10.0,42,0.00,,---,0.00,VWS V14.01,2013-02-04 20:20:00,
2013-02-04 14:25:00,56.5,34.3,29.92,SW,221,4.0,15.0,43,0.00,,---,0.00,VWS V14.01,2013-02-04 20:25:00,
2013-02-04 14:30:00,56.1,34.5,29.92,SSE,163,3.0,15.0,44,0.00,,---,0.00,VWS V14.01,2013-02-04 20:30:00,
2013-02-04 14:35:00,55.7,34.7,29.92,South,191,5.0,6.0,45,0.00,,---,0.00,VWS V14.01,2013-02-04 20:35:00,
2013-02-04 14:40:00,55.4,35.0,29.92,SSW,211,4.0,12.0,46,0.00,,---,0.00,VWS V14.01,2013-02-04 20:40:00,
2013-02-04 14:45:00,55.2,35.3,29.91,SE,142,4.0,12.0,47,0.00,,---,0.00,VWS V14.01,2013-02-04 20:45:00,
2013-02-04 14:50:00,55.1,34.7,29.91,SSE,155,7.0,12.0,46,0.00,,---,0.00,VWS V14.01,2013-02-04 20:50:00,
2013-02-04 14:55:00,55.0,35.2,29.91,South,169,4.0,12.0,47,0.00,,---,0.00,VWS V14.01,2013-02-04 20:55:00,
2013-02-04 15:00:00,54.8,35.5,29.91,SW,216,7.0,12.0,48,0.00,,---,0.00,VWS V14.01,2013-02-04 21:00:00,
2013-02-04 15:05:00,54.7,36.4,29.91,South,184,1.0,3.0,50,0.00,,---,0.00,VWS V14.01,2013-02-04 21:05:00,
2013-02-04 15:10:00,54.6,36.8,29.91,SW,214,4.0,7.0,51,0.00,,---,0.00,VWS V14.01,2013-02-04 21:10:00,
2013-02-04 15:15:00,54.5,36.3,29.92,SSW,209,1.0,9.0,50,0.00,,---,0.00,VWS V14.01,2013-02-04 21:15:00,
2013-02-04 15:20:00,54.4,36.7,29.92,SSW,197,7.0,10.0,51,0.00,,---,0.00,VWS V14.01,2013-02-04 21:20:00,
2013-02-04 15:25:00,54.3,37.1,29.92,SSW,213,0.0,10.0,52,0.00,,---,0.00,VWS V14.01,2013-02-04 21:25:00,
2013-02-04 15:30:00,54.2,37.9,29.92,SSW,207,4.0,10.0,54,0.00,,---,0.00,VWS V14.01,2013-02-04 21:30:00,
2013-02-04 15:35:00,54.1,38.8,29.92,SW,225,0.0,1.0,56,0.00,,---,0.00,VWS V14.01,2013-02-04 21:35:00,
2013-02-04 15:40:00,53.9,39.0,29.92,SW,225,2.0,3.0,57,0.00,,---,0.00,VWS V14.01,2013-02-04 21:40:00,
2013-02-04 15:45:00,53.8,39.4,29.91,SW,225,1.0,3.0,58,0.00,,---,0.00,VWS V14.01,2013-02-04 21:45:00,
2013-02-04 15:50:00,53.5,40.0,29.91,SW,220,2.0,4.0,60,0.00,,---,0.00,VWS V14.01,2013-02-04 21:50:00,
2013-02-04 15:55:00,53.3,39.8,29.91,SSW,209,4.0,5.0,60,0.00,,---,0.00,VWS V14.01,2013-02-04 21:55:00,
2013-02-04 16:00:00,53.0,39.5,29.91,South,185,2.0,6.0,60,0.00,,---,0.00,VWS V14.01,2013-02-04 22:00:00,
2013-02-04 16:05:00,52.8,39.7,29.91,South,171,1.0,3.0,61,0.00,,---,0.00,VWS V14.01,2013-02-04 22:05:00,
2013-02-04 16:10:00,52.7,40.1,29.91,SSW,207,4.0,5.0,62,0.00,,---,0.00,VWS V14.01,2013-02-04 22:10:00,
2013-02-04 16:15:00,52.6,40.4,29.90,South,181,4.0,7.0,63,0.00,,---,0.00,VWS V14.01,2013-02-04 22:15:00,
2013-02-04 16:20:00,52.4,40.2,29.90,South,188,4.0,7.0,63,0.00,,---,0.00,VWS V14.01,2013-02-04 22:20:00,
2013-02-04 16:25:00,52.3,40.1,29.90,South,181,4.0,7.0,63,0.00,,---,0.00,VWS V14.01,2013-02-04 22:25:00,
2013-02-04 16:30:00,52.2,40.4,29.90,South,174,2.0,7.0,64,0.00,,---,0.00,VWS V14.01,2013-02-04 22:30:00,
2013-02-04 16:35:00,52.0,40.6,29.91,SSW,196,4.0,4.0,65,0.00,,---,0.00,VWS V14.01,2013-02-04 22:35:00,
2013-02-04 16:40:00,51.8,40.8,29.91,SSW,196,2.0,4.0,66,0.00,,---,0.00,VWS V14.01,2013-02-04 22:40:00,
2013-02-04 16:45:00,51.7,40.7,29.91,South,187,3.0,5.0,66,0.00,,---,0.00,VWS V14.01,2013-02-04 22:45:00,
2013-02-04 16:50:00,51.5,41.3,29.91,SSW,195,4.0,7.0,68,0.00,,---,0.00,VWS V14.01,2013-02-04 22:50:00,
2013-02-04 16:55:00,51.3,41.9,29.90,SSE,165,3.0,7.0,70,0.01,,---,0.01,VWS V14.01,2013-02-04 22:55:00,
2013-02-04 17:00:00,50.7,42.4,29.90,South,170,6.0,9.0,73,0.01,,---,0.01,VWS V14.01,2013-02-04 23:00:00,
2013-02-04 17:05:00,50.2,42.6,29.90,South,184,0.0,4.0,75,0.01,,---,0.01,VWS V14.01,2013-02-04 23:05:00,
2013-02-04 17:10:00,49.9,42.3,29.90,SW,232,2.0,6.0,75,0.01,,---,0.01,VWS V14.01,2013-02-04 23:10:00,
2013-02-04 17:15:00,49.7,42.5,29.90,South,182,2.0,7.0,76,0.01,,---,0.01,VWS V14.01,2013-02-04 23:15:00,
2013-02-04 17:20:00,49.6,42.0,29.89,SE,141,2.0,7.0,75,0.01,,---,0.01,VWS V14.01,2013-02-04 23:20:00,
2013-02-04 17:25:00,49.6,42.4,29.89,SSE,161,3.0,7.0,76,0.01,,---,0.01,VWS V14.01,2013-02-04 23:25:00,
2013-02-04 17:30:00,49.7,42.1,29.89,SSE,160,5.0,9.0,75,0.01,,---,0.01,VWS V14.01,2013-02-04 23:30:00,
2013-02-04 17:35:00,49.7,42.1,29.89,South,178,5.0,10.0,75,0.01,,---,0.01,VWS V14.01,2013-02-04 23:35:00,
2013-02-04 17:40:00,49.8,42.2,29.89,South,189,5.0,10.0,75,0.01,,---,0.01,VWS V14.01,2013-02-04 23:40:00,
2013-02-04 17:45:00,49.8,42.2,29.90,South,188,6.0,10.0,75,0.01,,---,0.01,VWS V14.01,2013-02-04 23:45:00,
2013-02-04 17:50:00,49.7,42.5,29.90,SSE,167,7.0,11.0,76,0.01,,---,0.01,VWS V14.01,2013-02-04 23:50:00,
2013-02-04 17:55:00,49.7,42.5,29.90,South,183,3.0,13.0,76,0.01,,---,0.01,VWS V14.01,2013-02-04 23:55:00,
2013-02-04 18:00:00,49.6,42.7,29.89,SSW,194,6.0,13.0,77,0.01,,---,0.01,VWS V14.01,2013-02-05 00:00:00,
2013-02-04 18:05:00,49.4,42.8,29.89,SSW,196,5.0,7.0,78,0.00,,---,0.01,VWS V14.01,2013-02-05 00:05:00,
2013-02-04 18:10:00,49.4,42.8,29.90,SSW,196,5.0,9.0,78,0.00,,---,0.01,VWS V14.01,2013-02-05 00:10:00,
2013-02-04 18:15:00,49.3,42.7,29.89,South,174,6.0,12.0,78,0.00,,---,0.01,VWS V14.01,2013-02-05 00:15:00,
2013-02-04 18:20:00,49.2,43.0,29.89,SSE,155,6.0,13.0,79,0.00,,---,0.01,VWS V14.01,2013-02-05 00:20:00,
2013-02-04 18:25:00,49.1,42.9,29.89,SE,141,9.0,13.0,79,0.00,,---,0.01,VWS V14.01,2013-02-05 00:25:00,
2013-02-04 18:30:00,49.0,43.1,29.89,South,188,2.0,13.0,80,0.00,,---,0.01,VWS V14.01,2013-02-05 00:30:00,
2013-02-04 18:35:00,49.0,43.1,29.89,SSW,194,0.0,2.0,80,0.00,,---,0.01,VWS V14.01,2013-02-05 00:35:00,
2013-02-04 18:40:00,49.0,43.1,29.90,South,188,5.0,7.0,80,0.00,,---,0.01,VWS V14.01,2013-02-05 00:40:00,
2013-02-04 18:45:00,49.1,43.2,29.90,SSW,193,7.0,8.0,80,0.00,,---,0.01,VWS V14.01,2013-02-05 00:45:00,
2013-02-04 18:50:00,49.2,43.3,29.90,SSW,202,4.0,8.0,80,0.00,,---,0.01,VWS V14.01,2013-02-05 00:50:00,
2013-02-04 18:55:00,49.2,43.3,29.90,SSW,196,2.0,8.0,80,0.00,,---,0.01,VWS V14.01,2013-02-05 00:55:00,
2013-02-04 19:00:00,49.2,43.0,29.90,SSW,207,4.0,8.0,79,0.00,,---,0.01,VWS V14.01,2013-02-05 01:00:00,
2013-02-04 19:05:00,49.3,43.1,29.90,SW,228,0.0,1.0,79,0.00,,---,0.01,VWS V14.01,2013-02-05 01:05:00,
2013-02-04 19:10:00,49.3,43.4,29.91,West,259,2.0,3.0,80,0.00,,---,0.01,VWS V14.01,2013-02-05 01:10:00,
2013-02-04 19:15:00,49.2,43.3,29.91,NW,312,2.0,4.0,80,0.00,,---,0.01,VWS V14.01,2013-02-05 01:15:00,
2013-02-04 19:20:00,49.2,43.3,29.92,NW,307,1.0,4.0,80,0.00,,---,0.01,VWS V14.01,2013-02-05 01:20:00,
2013-02-04 19:25:00,49.1,43.2,29.91,NW,307,0.0,4.0,80,0.00,,---,0.01,VWS V14.01,2013-02-05 01:25:00,
2013-02-04 19:30:00,49.0,43.1,29.91,NW,307,1.0,4.0,80,0.00,,---,0.01,VWS V14.01,2013-02-05 01:30:00,
2013-02-04 19:35:00,49.0,43.8,29.92,NW,307,0.0,0.0,82,0.01,,---,0.02,VWS V14.01,2013-02-05 01:35:00,
2013-02-04 19:40:00,48.9,44.0,29.92,NW,307,0.0,0.0,83,0.02,,---,0.03,VWS V14.01,2013-02-05 01:40:00,
2013-02-04 19:45:00,48.7,44.4,29.92,NW,307,0.0,0.0,85,0.02,,---,0.03,VWS V14.01,2013-02-05 01:45:00,
2013-02-04 19:50:00,48.5,44.5,29.92,NW,307,0.0,0.0,86,0.02,,---,0.03,VWS V14.01,2013-02-05 01:50:00,
2013-02-04 19:55:00,48.3,44.6,29.92,NW,307,0.0,0.0,87,0.03,,---,0.04,VWS V14.01,2013-02-05 01:55:00,
2013-02-04 20:00:00,48.2,44.8,29.92,NW,307,0.0,0.0,88,0.03,,---,0.04,VWS V14.01,2013-02-05 02:00:00,
2013-02-04 20:05:00,48.0,44.9,29.92,NW,307,0.0,0.0,89,0.03,,---,0.04,VWS V14.01,2013-02-05 02:05:00,
2013-02-04 20:10:00,47.9,44.8,29.92,NW,307,0.0,0.0,89,0.03,,---,0.04,VWS V14.01,2013-02-05 02:10:00,
2013-02-04 20:15:00,47.8,45.0,29.92,NW,307,0.0,0.0,90,0.03,,---,0.04,VWS V14.01,2013-02-05 02:15:00,
2013-02-04 20:20:00,47.7,45.2,29.92,NW,307,0.0,0.0,91,0.03,,---,0.04,VWS V14.01,2013-02-05 02:20:00,
2013-02-04 20:25:00,47.5,45.0,29.93,NW,307,0.0,0.0,91,0.03,,---,0.04,VWS V14.01,2013-02-05 02:25:00,
2013-02-04 20:30:00,47.4,44.9,29.93,NW,307,0.0,0.0,91,0.03,,---,0.04,VWS V14.01,2013-02-05 02:30:00,
2013-02-04 20:35:00,47.2,44.7,29.93,NW,307,0.0,0.0,91,0.02,,---,0.04,VWS V14.01,2013-02-05 02:35:00,
2013-02-04 20:40:00,47.2,44.7,29.93,NW,307,0.0,1.0,91,0.02,,---,0.04,VWS V14.01,2013-02-05 02:40:00,
2013-02-04 20:45:00,47.1,44.6,29.92,NW,307,0.0,1.0,91,0.02,,---,0.04,VWS V14.01,2013-02-05 02:45:00,
2013-02-04 20:50:00,47.0,44.5,29.92,NW,307,0.0,2.0,91,0.02,,---,0.04,VWS V14.01,2013-02-05 02:50:00,
2013-02-04 20:55:00,47.1,44.9,29.92,NW,307,0.0,2.0,92,0.02,,---,0.04,VWS V14.01,2013-02-05 02:55:00,
2013-02-04 21:00:00,47.1,44.9,29.92,NW,307,0.0,2.0,92,0.02,,---,0.04,VWS V14.01,2013-02-05 03:00:00,
2013-02-04 21:05:00,47.1,44.6,29.92,South,181,0.0,2.0,91,0.00,,---,0.04,VWS V14.01,2013-02-05 03:05:00,
2013-02-04 21:10:00,47.1,44.6,29.92,South,182,4.0,4.0,91,0.00,,---,0.04,VWS V14.01,2013-02-05 03:10:00,
2013-02-04 21:15:00,47.2,44.7,29.92,SSW,192,0.0,4.0,91,0.00,,---,0.04,VWS V14.01,2013-02-05 03:15:00,
2013-02-04 21:20:00,47.2,44.4,29.92,SSW,209,1.0,5.0,90,0.00,,---,0.04,VWS V14.01,2013-02-05 03:20:00,
2013-02-04 21:25:00,47.3,44.5,29.92,SSW,210,5.0,5.0,90,0.00,,---,0.04,VWS V14.01,2013-02-05 03:25:00,
2013-02-04 21:30:00,47.5,44.4,29.92,SW,227,5.0,10.0,89,0.00,,---,0.04,VWS V14.01,2013-02-05 03:30:00,
2013-02-04 21:35:00,47.8,44.4,29.93,South,180,3.0,6.0,88,0.00,,---,0.04,VWS V14.01,2013-02-05 03:35:00,
2013-02-04 21:40:00,48.0,44.6,29.93,SSW,207,6.0,9.0,88,0.00,,---,0.04,VWS V14.01,2013-02-05 03:40:00,
2013-02-04 21:45:00,48.1,44.4,29.92,SW,226,3.0,9.0,87,0.00,,---,0.04,VWS V14.01,2013-02-05 03:45:00,
2013-02-04 21:50:00,48.1,44.4,29.92,SSW,201,5.0,9.0,87,0.00,,---,0.04,VWS V14.01,2013-02-05 03:50:00,
2013-02-04 21:55:00,48.1,44.7,29.92,WSW,254,4.0,9.0,88,0.00,,---,0.04,VWS V14.01,2013-02-05 03:55:00,
2013-02-04 22:00:00,48.1,44.7,29.92,SSW,200,0.0,9.0,88,0.00,,---,0.04,VWS V14.01,2013-02-05 04:00:00,
2013-02-04 22:05:00,48.1,44.7,29.92,SSW,200,0.0,3.0,88,0.00,,---,0.04,VWS V14.01,2013-02-05 04:05:00,
2013-02-04 22:10:00,48.1,44.7,29.92,SSW,200,4.0,4.0,88,0.00,,---,0.04,VWS V14.01,2013-02-05 04:10:00,
2013-02-04 22:15:00,48.0,44.6,29.92,SSW,200,3.0,4.0,88,0.00,,---,0.04,VWS V14.01,2013-02-05 04:15:00,
2013-02-04 22:20:00,48.0,44.6,29.92,SSW,200,0.0,4.0,88,0.00,,---,0.04,VWS V14.01,2013-02-05 04:20:00,
2013-02-04 22:25:00,47.9,44.8,29.92,SSW,200,3.0,4.0,89,0.00,,---,0.04,VWS V14.01,2013-02-05 04:25:00,
2013-02-04 22:30:00,47.9,44.8,29.92,SSW,200,2.0,5.0,89,0.00,,---,0.04,VWS V14.01,2013-02-05 04:30:00,
2013-02-04 22:35:00,47.9,44.8,29.92,SSW,200,2.0,2.0,89,0.00,,---,0.04,VWS V14.01,2013-02-05 04:35:00,
2013-02-04 22:40:00,47.9,44.8,29.92,SSW,200,3.0,5.0,89,0.00,,---,0.04,VWS V14.01,2013-02-05 04:40:00,
2013-02-04 22:45:00,47.9,44.8,29.91,SSW,200,3.0,5.0,89,0.00,,---,0.04,VWS V14.01,2013-02-05 04:45:00,
2013-02-04 22:50:00,47.9,44.8,29.91,SSW,195,3.0,5.0,89,0.00,,---,0.04,VWS V14.01,2013-02-05 04:50:00,
2013-02-04 22:55:00,47.9,44.8,29.91,South,186,4.0,5.0,89,0.00,,---,0.04,VWS V14.01,2013-02-05 04:55:00,
2013-02-04 23:00:00,47.9,44.8,29.91,South,170,3.0,6.0,89,0.00,,---,0.04,VWS V14.01,2013-02-05 05:00:00,
2013-02-04 23:05:00,47.9,44.8,29.91,SSE,161,2.0,3.0,89,0.00,,---,0.04,VWS V14.01,2013-02-05 05:05:00,
2013-02-04 23:10:00,47.9,44.8,29.92,SSW,200,4.0,5.0,89,0.00,,---,0.04,VWS V14.01,2013-02-05 05:10:00,
2013-02-04 23:15:00,47.9,44.8,29.92,SSW,211,1.0,5.0,89,0.00,,---,0.04,VWS V14.01,2013-02-05 05:15:00,
2013-02-04 23:20:00,47.9,45.1,29.92,SSW,213,3.0,5.0,90,0.00,,---,0.04,VWS V14.01,2013-02-05 05:20:00,
2013-02-04 23:25:00,47.9,45.1,29.92,SSW,195,2.0,5.0,90,0.00,,---,0.04,VWS V14.01,2013-02-05 05:25:00,
2013-02-04 23:30:00,48.0,45.2,29.92,SSW,195,1.0,5.0,90,0.00,,---,0.04,VWS V14.01,2013-02-05 05:30:00,
2013-02-04 23:35:00,48.0,45.2,29.92,SSW,195,1.0,2.0,90,0.00,,---,0.04,VWS V14.01,2013-02-05 05:35:00,
2013-02-04 23:40:00,48.0,45.2,29.92,SSW,195,0.0,4.0,90,0.00,,---,0.04,VWS V14.01,2013-02-05 05:40:00,
2013-02-04 23:45:00,48.0,45.2,29.92,SSW,195,0.0,4.0,90,0.00,,---,0.04,VWS V14.01,2013-02-05 05:45:00,
2013-02-04 23:50:00,48.0,45.2,29.92,SSW,195,2.0,4.0,90,0.00,,---,0.04,VWS V14.01,2013-02-05 05:50:00,
2013-02-04 23:55:00,48.0,45.2,29.92,SSW,195,0.0,4.0,90,0.00,,---,0.04,VWS V14.01,2013-02-05 05:55:00,